STARLINK-36155 (66938 NORAD) Tracking and Keplerian Element Data

This shows tracking and keplerian element data for the satellite.

Feedback or suggestion? Click here.




ElementValue
Catalog66938
NameSTARLINK-36155
Epoch Orbit319
Epoch Day354.25003472
Epoch Year2025
RAAN12.6745
Inclination53.1558
Eccentricity8.81E-05
Argument of Perigee74.0286
Mean Anonmoly183.6553
Mean Motion15.77539283
Decay Rate-0.01483247
L11 66938U 25286P 25354.25003472 -.01483247 00000+0 -99115-2 0 9994
L22 66938 53.1558 12.6745 0000881 74.0286 183.6553 15.77539283 3194



Live tracking and technical data element details for STARLINK-36155 (NORAD 66938). STARLINK-36155 can be tracked NOW for your location showing map with azimuth and elevation plus other details from your city location.







IsCatalogInMostPopularTable: catalog: 66938, numindb: 21
Update: records affected: 1



GetName: 66938 STARLINK-36155

Hit Count: updated at: Tue, 21 Apr 2026 19:12:35 GMT